Glendive, MT

2:24 PM MDT on May 23, 2017 (GMT -0600)
Dawson Community

Weather History for KGDV - July, 2013

Change the Weather History Date:

Thursday, July 18, 2013

  Actual Average Record
Temperature  
Mean Temperature 74 °F -  
Max Temperature 87 °F 84 °F 100 °F (2004)
Min Temperature 60 °F 57 °F 53 °F (2005)
Cooling Degree Days 8    
Growing Degree Days 24 (Base 50)    
Moisture  
Dew Point 55 °F    
Average Humidity 55    
Maximum Humidity 88    
Minimum Humidity 24    
Precipitation  
Precipitation 0.02 in - - ()
Sea Level Pressure  
Sea Level Pressure 29.98 in    
Wind  
Wind Speed 10 mph (NW)    
Max Wind Speed 22 mph    
Max Gust Speed 91 mph    
Visibility 10 miles    
Events      
Averages and records for this station are not official NWS values.
T = Trace of Precipitation, MM = Missing Value Source: NWS Daily Summary

Daily Weather History Graph

Daily Weather History Graph

Search for Another Location

Airport or City:

Trip Planner

Search our weather history database for the weather conditions in past years. The results will help you decide how hot, cold, wet, or windy it might be!

Date:

Astronomy

Jul. 18, 2013 Rise Set
Actual Time 5:22 AM MDT 8:48 PM MDT
Civil Twilight 4:44 AM MDT 9:25 PM MDT
Nautical Twilight 3:54 AM MDT 10:15 PM MDT
Astronomical Twilight 2:49 AM MDT 11:19 PM MDT
Moon 4:45 PM MDT (7/18) 1:18 AM MDT (7/18)
Length of Visible Light 16h 41m
Length of Day
15h 25m
Waxing Gibbous, 78% of the Moon is Illuminated
Jul 18
Waxing Gibbous
Jul 22
Full
Jul 29
Last Quarter
Aug 6
New
Aug 14
First Quarter

Hourly Weather History & Observations

Time (MDT) Temp. Heat Index Dew Point Humidity Pressure Visibility Wind Dir Wind Speed Gust Speed Precip Events Conditions
12:15 AM 66.2 °F - 62.6 °F 88% - 10.0 mi NNW 6.9 mph - N/A   Clear
12:35 AM 66.2 °F - 62.6 °F 88% - 10.0 mi NNW 9.2 mph - N/A   Clear
12:55 AM 64.4 °F - 60.8 °F 88% - 10.0 mi NNW 11.5 mph - N/A   Clear
1:15 AM 64.4 °F - 60.8 °F 88% - 10.0 mi NNW 9.2 mph - N/A   Clear
1:35 AM 64.4 °F - 60.8 °F 88% - 10.0 mi NW 12.7 mph - N/A   Clear
1:55 AM 64.4 °F - 59.0 °F 83% - 10.0 mi NNW 10.4 mph - N/A   Clear
2:15 AM 64.4 °F - 59.0 °F 83% - 10.0 mi NNW 8.1 mph - N/A   Clear
2:55 AM 62.6 °F - 57.2 °F 82% 29.93 in 10.0 mi Calm Calm - N/A   Clear
3:15 AM 62.6 °F - 59.0 °F 88% 29.92 in 10.0 mi Calm Calm - N/A   Clear
3:35 AM 62.6 °F - 59.0 °F 88% - 10.0 mi SSE 5.8 mph - N/A   Clear
3:55 AM 62.6 °F - 57.2 °F 82% - 10.0 mi North 6.9 mph - N/A   Clear
4:35 AM 60.8 °F - 57.2 °F 88% 29.91 in 10.0 mi North 5.8 mph - N/A   Clear
4:55 AM 60.8 °F - 57.2 °F 88% 29.92 in 10.0 mi North 4.6 mph - N/A   Clear
5:15 AM 60.8 °F - 57.2 °F 88% 29.93 in 10.0 mi Calm Calm - N/A   Clear
5:35 AM 60.8 °F - 57.2 °F 88% 29.94 in 10.0 mi NW 9.2 mph - N/A   Clear
5:55 AM 60.8 °F - 57.2 °F 88% 29.96 in 10.0 mi Calm Calm - N/A   Clear
6:35 AM 62.6 °F - 57.2 °F 82% 29.96 in 10.0 mi Calm Calm - N/A   Clear
6:55 AM 64.4 °F - 59.0 °F 83% 29.96 in 10.0 mi Calm Calm - N/A   Clear
7:15 AM 66.2 °F - 60.8 °F 83% - 10.0 mi South 3.5 mph - N/A   Clear
7:35 AM 66.2 °F - 60.8 °F 83% - 10.0 mi SSW 4.6 mph - N/A   Clear
7:55 AM 69.8 °F - 62.6 °F 78% - 10.0 mi SSW 4.6 mph - N/A   Clear
8:15 AM 71.6 °F - 62.6 °F 73% - 10.0 mi WSW 4.6 mph - N/A   Clear
8:35 AM 73.4 °F - 62.6 °F 69% - 10.0 mi SW 8.1 mph - N/A   Clear
8:55 AM 75.2 °F - 62.6 °F 65% 29.98 in 10.0 mi WSW 8.1 mph - 0.02 in   Clear
9:15 AM 78.8 °F - 64.4 °F 61% 29.98 in 10.0 mi WNW 10.4 mph - N/A   Clear
9:35 AM 80.6 °F 81.8 °F 62.6 °F 54% 29.97 in 10.0 mi WNW 11.5 mph - N/A   Clear
9:55 AM 82.4 °F 82.9 °F 60.8 °F 48% 29.98 in 10.0 mi North 4.6 mph 90.9 mph N/A   Clear
10:15 AM 84.2 °F 84.4 °F 60.8 °F 45% 29.97 in - West 12.7 mph 18.4 mph N/A   Clear
11:15 AM 84.2 °F 84.4 °F 60.8 °F 45% 29.97 in - WNW 11.5 mph 21.9 mph N/A   Unknown
11:35 AM 84.2 °F 84.4 °F 60.8 °F 45% 29.97 in - NW 15.0 mph 24.2 mph N/A   Clear
11:55 AM 86.0 °F 86.1 °F 60.8 °F 43% 29.96 in - WNW 15.0 mph 21.9 mph N/A   Clear
12:15 PM 86.0 °F 86.6 °F 62.6 °F 45% 29.96 in 10.0 mi NNW 19.6 mph 24.2 mph N/A   Clear
12:35 PM 84.2 °F 84.4 °F 60.8 °F 45% 29.97 in 10.0 mi NW 17.3 mph 23.0 mph N/A   Clear
12:55 PM 87.8 °F 86.5 °F 57.2 °F 35% 29.97 in 10.0 mi NW 18.4 mph 24.2 mph N/A   Clear
1:15 PM 87.8 °F 86.1 °F 55.4 °F 33% 29.97 in 10.0 mi WNW 16.1 mph 21.9 mph N/A   Clear
1:55 PM 87.8 °F 85.7 °F 53.6 °F 31% 29.97 in 10.0 mi NW 19.6 mph 28.8 mph N/A   Clear
2:15 PM 87.8 °F - 51.8 °F 29% 29.97 in 10.0 mi West 18.4 mph 29.9 mph N/A   Clear
2:35 PM 87.8 °F - 51.8 °F 29% 29.97 in 10.0 mi WNW 20.7 mph 28.8 mph N/A   Clear
2:55 PM 87.8 °F - 51.8 °F 29% 29.97 in 10.0 mi West 19.6 mph 26.5 mph N/A   Clear
3:15 PM 87.8 °F 85.7 °F 53.6 °F 31% 29.97 in 10.0 mi West 19.6 mph 27.6 mph N/A   Clear
3:35 PM 87.8 °F - 51.8 °F 29% 29.97 in 10.0 mi WNW 16.1 mph 23.0 mph N/A   Clear
3:55 PM 87.8 °F - 50.0 °F 27% 29.96 in 10.0 mi WNW 15.0 mph 25.3 mph N/A   Clear
4:15 PM 87.8 °F - 50.0 °F 27% 29.96 in 10.0 mi WNW 17.3 mph 25.3 mph N/A   Clear
4:35 PM 87.8 °F - 48.2 °F 25% 29.96 in 10.0 mi WNW 21.9 mph 29.9 mph N/A   Clear
4:55 PM 87.8 °F - 46.4 °F 24% 29.96 in 10.0 mi WNW 19.6 mph 28.8 mph N/A   Clear
5:15 PM 87.8 °F - 46.4 °F 24% 29.96 in 10.0 mi WNW 21.9 mph 27.6 mph N/A   Clear
5:35 PM 87.8 °F - 48.2 °F 25% 29.95 in 10.0 mi NW 17.3 mph 20.7 mph N/A   Clear
5:55 PM 87.8 °F - 48.2 °F 25% 29.95 in 10.0 mi WNW 19.6 mph 27.6 mph N/A   Clear
6:15 PM 86.0 °F - 48.2 °F 27% 29.95 in 10.0 mi WNW 20.7 mph 27.6 mph N/A   Clear
6:35 PM 86.0 °F - 48.2 °F 27% 29.96 in 10.0 mi NW 17.3 mph 24.2 mph N/A   Clear
6:55 PM 84.2 °F - 44.6 °F 25% 29.96 in 10.0 mi NW 20.7 mph 32.2 mph N/A   Clear
7:15 PM 84.2 °F - 44.6 °F 25% 29.97 in 10.0 mi NW 20.7 mph 28.8 mph N/A   Clear
7:35 PM 82.4 °F - 46.4 °F 28% 29.97 in 10.0 mi NW 18.4 mph 24.2 mph N/A   Clear
7:55 PM 80.6 °F - 46.4 °F 30% 29.98 in 10.0 mi NW 15.0 mph - N/A   Clear
8:15 PM 78.8 °F - 46.4 °F 32% 29.99 in 10.0 mi NW 10.4 mph - N/A   Clear
8:35 PM 75.2 °F - 48.2 °F 38% 30.00 in 10.0 mi NNW 9.2 mph - N/A   Clear
8:55 PM 73.4 °F - 50.0 °F 44% 30.01 in 10.0 mi North 10.4 mph - N/A   Clear
9:15 PM 71.6 °F - 51.8 °F 50% 30.01 in 10.0 mi North 8.1 mph - N/A   Clear
9:35 PM 69.8 °F - 53.6 °F 56% 30.02 in 10.0 mi North 10.4 mph - N/A   Clear
9:55 PM 69.8 °F - 53.6 °F 56% 30.03 in 10.0 mi NNE 9.2 mph - N/A   Clear
10:15 PM 69.8 °F - 53.6 °F 56% 30.04 in 10.0 mi NNE 9.2 mph - N/A   Clear
10:35 PM 69.8 °F - 53.6 °F 56% 30.05 in 10.0 mi North 8.1 mph - N/A   Clear
10:55 PM 68.0 °F - 53.6 °F 60% 30.05 in 10.0 mi NNE 6.9 mph - N/A   Clear
11:15 PM 66.2 °F - 53.6 °F 64% 30.05 in 10.0 mi North 8.1 mph - N/A   Clear
11:35 PM 66.2 °F - 53.6 °F 64% 30.05 in 10.0 mi NNE 8.1 mph - N/A   Clear
11:55 PM 66.2 °F - 53.6 °F 64% 30.05 in 8.0 mi North 6.9 mph - N/A   Clear